FENGYUN 1C DEB, 38146

Orbit data source: Space-Track

FENGYUN 1C DEB, 38146 is space debris in SSO originally from a launch on Mon, 10 May 1999 UTC launched from the Taiyaun Space Center, China (TSC). Fengyun 1C debris stems from the Chinese weather satellite Fengyun-1C, which was intentionally destroyed by a Chinese anti-satellite missile in 2007. This event dramatically increased the amount of space debris, with thousands of trackable fragments posing hazards to satellites and human spaceflight. The Fengyun 1C debris cloud has become a focal point in discussions about space sustainability and the need for international regulations to prevent the creation of new debris.

Loading next visibility...
Identifier
38146, 1999-025EQT
Orbit
SSO
Country
Flag of CNCN / PRC
Related business
Manufacturer
Unknown
Mission
Spacecraft
Bus & Motor
Unknown
Mass
Unknown
Launch date (UTC)
1999-05-10 (27 years ago)
Launch vehicle
Unknown
Launch site
Taiyaun Space Center, China (TSC)
Object type
Payload
Rocket body
Debris
Shape & HBR
Unknown shape, 0.1 m
Radar Cross Section
Small (<0.1 m²)

Expand to show TLE details & history
Last TLE update: 2 days ago

TLE from 2 days ago
0 FENGYUN 1C DEB
1 38146U 99025EQT 26168.09140021  .00002869  00000-0  45524-3 0  9995
2 38146  99.4813 280.3417 0195202 262.7099 275.9546 14.61272087345993
Epoch: 2026-06-17T02:11Z
TLE epoch observation values (Epoch: 2026-06-17T02:11:36.978Z)
Latitude
3.41992°
Longitude
162.65232°
Altitude
679.994 km
Speed
7.523 km/s
True Right ascension
06h 43m 38s
True Declination
3° 23' 57"
Sunlit
Object was in daylight at epoch
Visualization orbit readout
Latitude
Unknown
Longitude
Unknown
Altitude
Unknown
Speed
Unknown
Apparent Right ascension
Unknown
Apparent Declination
Unknown
Sunlit
N/A
Visualization observer readout
Local Sidereal Time
01:01:55
Azimuth
Unknown
Elevation
Unknown
Doppler factor
Unknown
Orbital elements
Apogee altitude
824.108 km
Perigee altitude
548.313 km
Semi-major axis
7,064.348 km
Eccentricity
0.01952
Inclination
99.4813°
RAAN
280.3417°
Arg. of periapsis
262.7099°
True anomaly
273.72474°
Mean anomaly
275.9546°
Eccentric anomaly
274.84016°
Mean motion
3.6554 °/min
Orbital period
98.48 mins
BSTAR
0.00045524
Loading maneuver chart data...
Computing Atmospheric mass density...

Documentation

Showing up to 5 results
|